SWA1508 KLAX-KMDW

Flight info

Callsign SWA1508
Flight time N/A
Altitude 37000
Route ORCKA5 LAS J146 DICEE CEZ HELPS/N0446F390 RYLIE KIDER J96 IRK ENDEE8
Aircraft B737/M-SDE2E3FGHIRWXY/LB1

Departure

Time 2026-05-06 18:46
Airport Los Angeles International Airport (KLAX)

Arrival

Time N/A
Airport Chicago Midway International Airport (KMDW)
Time Latitude Longitude Altitude Speed Heading
2026-05-06 18:16 33.94759 -118.40194 127 ft 0 kts 110°
2026-05-06 18:35 33.94759 -118.40196 126 ft 1 kts 111°
2026-05-06 18:35 33.94764 -118.40211 126 ft 2 kts 110°
2026-05-06 18:36 33.94768 -118.40224 126 ft 0 kts 110°
2026-05-06 18:36 33.94770 -118.40238 126 ft 2 kts 78°
2026-05-06 18:36 33.94764 -118.40253 126 ft 2 kts 41°
2026-05-06 18:36 33.94751 -118.40261 126 ft 2 kts
2026-05-06 18:37 33.94744 -118.40260 127 ft 1 kts 348°
2026-05-06 18:37 33.94740 -118.40260 127 ft 0 kts 353°
2026-05-06 18:42 33.94743 -118.40260 127 ft 1 kts 353°
2026-05-06 18:43 33.94759 -118.40263 127 ft 4 kts 352°
2026-05-06 18:43 33.94800 -118.40271 126 ft 6 kts 346°
2026-05-06 18:43 33.94859 -118.40292 125 ft 10 kts 358°
2026-05-06 18:43 33.94907 -118.40233 124 ft 11 kts 85°
2026-05-06 18:44 33.94912 -118.40137 123 ft 11 kts 85°
2026-05-06 18:44 33.94922 -118.40042 122 ft 11 kts 82°
2026-05-06 18:44 33.94940 -118.39942 119 ft 13 kts 57°
2026-05-06 18:44 33.95023 -118.39916 118 ft 12 kts 339°
2026-05-06 18:45 33.95040 -118.39976 118 ft 0 kts 263°
2026-05-06 18:45 33.95009 -118.40266 122 ft 72 kts 263°
2026-05-06 18:45 33.94921 -118.41142 130 ft 136 kts 262°
2026-05-06 18:46 33.94791 -118.42418 386 ft 165 kts 263°
2026-05-06 18:46 33.94659 -118.43847 917 ft 181 kts 262°
2026-05-06 18:46 33.94485 -118.45325 1623 ft 181 kts 262°
2026-05-06 18:46 33.94322 -118.46902 2039 ft 197 kts 264°
2026-05-06 18:47 33.94150 -118.48579 2467 ft 211 kts 264°
2026-05-06 18:47 33.93944 -118.50429 2882 ft 229 kts 264°
2026-05-06 18:47 33.93727 -118.52351 3335 ft 243 kts 264°
2026-05-06 18:47 33.93499 -118.54385 4048 ft 246 kts 264°
2026-05-06 18:48 33.93274 -118.56410 4764 ft 249 kts 265°
2026-05-06 18:48 33.93045 -118.58472 5468 ft 251 kts 265°
2026-05-06 18:48 33.92813 -118.60568 6151 ft 255 kts 266°
2026-05-06 18:48 33.92577 -118.62698 6840 ft 260 kts 265°
2026-05-06 18:49 33.92339 -118.64865 7391 ft 272 kts 265°
2026-05-06 18:49 33.92087 -118.67182 7877 ft 287 kts 265°
2026-05-06 18:49 33.91819 -118.69611 8537 ft 295 kts 265°
2026-05-06 18:49 33.91546 -118.72070 9294 ft 300 kts 265°
2026-05-06 18:50 33.91270 -118.74562 10033 ft 306 kts 265°
2026-05-06 18:50 33.90959 -118.77148 10615 ft 321 kts 260°
2026-05-06 18:50 33.90007 -118.79645 11134 ft 338 kts 232°
2026-05-06 18:50 33.88158 -118.81370 11866 ft 343 kts 202°
2026-05-06 18:51 33.85836 -118.81963 12578 ft 344 kts 180°
2026-05-06 18:51 33.83422 -118.81776 13284 ft 345 kts 164°
2026-05-06 18:51 33.81253 -118.80660 14017 ft 340 kts 140°
2026-05-06 18:51 33.79602 -118.78686 14773 ft 334 kts 120°
2026-05-06 18:52 33.78478 -118.76275 15548 ft 331 kts 108°
2026-05-06 18:52 33.77850 -118.73653 16273 ft 325 kts 91°
2026-05-06 18:52 33.78030 -118.71018 16993 ft 319 kts 71°
2026-05-06 18:52 33.78909 -118.68580 17773 ft 316 kts 58°
2026-05-06 18:53 33.80067 -118.66357 18428 ft 321 kts 54°
2026-05-06 18:53 33.81337 -118.64129 18990 ft 326 kts 53°
2026-05-06 18:53 33.82651 -118.61877 19104 ft 325 kts 53°
2026-05-06 18:53 33.83921 -118.59694 19116 ft 322 kts 53°
2026-05-06 18:54 33.85199 -118.57481 19114 ft 322 kts 53°
2026-05-06 18:54 33.86477 -118.55252 19115 ft 322 kts 53°
2026-05-06 18:54 33.87675 -118.53160 19115 ft 323 kts 53°
2026-05-06 18:54 33.88972 -118.50890 19157 ft 328 kts 53°
2026-05-06 18:55 33.90270 -118.48616 19900 ft 329 kts 53°
2026-05-06 18:55 33.91542 -118.46383 20735 ft 327 kts 53°